Weather History for Cecil Field, FL

Change the Weather History Date:

Monday, April 22, 2013

  Actual Average (KJAX) Record (KJAX)
Temperature  
Mean Temperature 58 °F 68 °F  
Max Temperature 62 °F 80 °F 93 °F (1968)
Min Temperature 53 °F 56 °F 42 °F (1950)
Degree Days  
Heating Degree Days 8 1  
Month to date heating degree days 48  
Since 1 July heating degree days 1337  
Cooling Degree Days 0 4  
Month to date cooling degree days 72  
Year to date cooling degree days 155  
Growing Degree Days 8 (Base 50)    
Moisture  
Dew Point 58 °F    
Average Humidity 96    
Maximum Humidity 100    
Minimum Humidity 77    
Precipitation  
Precipitation 0.00 in 0.08 in 1.21 in (1938)
Month to date precipitation 2.07  
Year to date precipitation 12.51  
Snow  
Snow 0.00 in 0.00 in 0.00 in (2002)
Month to date snowfall 0.0  
Since 1 July snowfall T  
Snow Depth -    
Sea Level Pressure  
Sea Level Pressure 30.12 in    
Wind  
Wind Speed 10 mph (NNE)    
Max Wind Speed 16 mph    
Max Gust Speed 28 mph    
Visibility 5 miles    
Events Rain    
T = Trace of Precipitation, MM = Missing Value Source: NWS Daily Summary

Daily Weather History Graph

Daily Weather History Graph

Search for Another Location

Airport:

Trip Planner

Search our weather history database for the weather conditions in past years. The results will help you decide how hot, cold, wet, or windy it might be!

Date:

Astronomy

Apr. 22, 2013 Rise Set
Actual Time 6:52 AM EDT 7:59 PM EDT
Civil Twilight 6:27 AM EDT 8:24 PM EDT
Nautical Twilight 5:58 AM EDT 8:54 PM EDT
Astronomical Twilight 5:27 AM EDT 9:24 PM EDT
Moon 4:59 PM EDT (4/22) 4:32 AM EDT (4/22)
Length of Visible Light 13h 56m
Length of Day
13h 06m
Waxing Gibbous, 87% of the Moon is Illuminated
Apr 22
Waxing Gibbous
Apr 25
Full
May 2
Last Quarter
May 9
New
May 18
First Quarter

Hourly Weather History & Observations

Time (EDT) Temp. Dew Point Humidity Pressure Visibility Wind Dir Wind Speed Gust Speed Precip Events Conditions
12:15 AM 62.6 °F 62.6 °F 100% 30.15 in 3.0 mi NNE 11.5 mph - N/A   Overcast
12:55 AM 62.6 °F 62.6 °F 100% 30.14 in 4.0 mi North 12.7 mph 18.4 mph N/A   Overcast
1:35 AM 62.6 °F 62.6 °F 100% 30.13 in 4.0 mi NNE 10.4 mph 16.1 mph N/A   Overcast
1:55 AM 62.6 °F 62.6 °F 100% 30.12 in 1.2 mi NNE 10.4 mph - N/A   Overcast
2:15 AM 62.6 °F 62.6 °F 100% 30.11 in 1.8 mi NNE 12.7 mph 17.3 mph N/A   Overcast
2:35 AM 62.6 °F 62.6 °F 100% 30.10 in 1.5 mi NNE 9.2 mph 17.3 mph N/A   Overcast
2:55 AM 62.6 °F 62.6 °F 100% 30.10 in 1.8 mi NNE 9.2 mph - N/A Rain Light Rain
3:15 AM 62.6 °F 62.6 °F 100% 30.09 in 3.0 mi North 8.1 mph - N/A   Overcast
3:35 AM 62.6 °F 62.6 °F 100% 30.09 in 3.0 mi NNE 11.5 mph - N/A   Overcast
3:55 AM 62.6 °F 62.6 °F 100% 30.09 in 3.0 mi NNE 11.5 mph - N/A   Overcast
4:15 AM 62.6 °F 62.6 °F 100% 30.08 in 2.5 mi NNE 12.7 mph 16.1 mph N/A   Overcast
4:35 AM 62.6 °F 62.6 °F 100% 30.08 in 1.5 mi North 10.4 mph - N/A Rain Light Rain
4:55 AM 62.6 °F 62.6 °F 100% 30.08 in 2.0 mi North 10.4 mph - N/A   Overcast
5:15 AM 62.6 °F 62.6 °F 100% 30.09 in 2.0 mi North 11.5 mph - N/A   Overcast
5:35 AM 62.6 °F 62.6 °F 100% 30.09 in 1.8 mi North 10.4 mph - N/A Rain Light Rain
5:55 AM 62.6 °F 62.6 °F 100% 30.09 in 3.0 mi North 11.5 mph 16.1 mph N/A   Overcast
6:15 AM 62.6 °F 62.6 °F 100% 30.10 in 1.5 mi North 11.5 mph - N/A Rain Light Rain
6:35 AM 60.8 °F 60.8 °F 100% 30.10 in 2.0 mi North 11.5 mph - N/A Rain Light Rain
6:50 AM 60.8 °F 60.8 °F 100% 30.11 in 2.0 mi North 13.8 mph 26.5 mph N/A Rain Light Rain
7:50 AM 60.8 °F 59.0 °F 94% 30.11 in 3.0 mi North 6.9 mph - N/A   Overcast
8:50 AM 60.8 °F 60.8 °F 100% 30.12 in 4.0 mi NNE 9.2 mph 17.3 mph N/A Rain Light Rain
9:50 AM 60.8 °F 60.8 °F 100% 30.14 in 5.0 mi North 13.8 mph 23.0 mph N/A Rain Light Rain
10:50 AM 59.0 °F 59.0 °F 100% 30.16 in 5.0 mi NNE 13.8 mph 23.0 mph N/A   Overcast
11:50 AM 59.0 °F 59.0 °F 100% 30.17 in 5.0 mi NNE 16.1 mph - N/A   Overcast
12:50 PM 59.0 °F 57.2 °F 94% 30.17 in 5.0 mi NNE 15.0 mph 27.6 mph N/A   Overcast
1:50 PM 59.0 °F 57.2 °F 94% 30.16 in 5.0 mi NNE 16.1 mph 26.5 mph N/A   Overcast
2:50 PM 59.0 °F 55.4 °F 88% 30.15 in 6.0 mi NNE 11.5 mph 26.5 mph N/A   Overcast
3:50 PM 62.6 °F 55.4 °F 77% 30.13 in 7.0 mi NNE 15.0 mph 26.5 mph N/A   Overcast
4:50 PM 62.6 °F 55.4 °F 77% 30.12 in 7.0 mi NNE 15.0 mph 23.0 mph N/A   Overcast
5:50 PM 62.6 °F 55.4 °F 77% 30.12 in 7.0 mi NNE 13.8 mph 24.2 mph N/A   Overcast
6:50 PM 62.6 °F 55.4 °F 77% 30.12 in 7.0 mi NNE 11.5 mph - N/A   Mostly Cloudy
7:50 PM 60.8 °F 53.6 °F 77% 30.12 in 7.0 mi NNE 11.5 mph - N/A   Scattered Clouds
8:15 PM 57.2 °F 53.6 °F 88% 30.13 in 10.0 mi Calm Calm - N/A   Clear
8:35 PM 55.4 °F 53.6 °F 94% 30.13 in 10.0 mi Calm Calm - N/A   Clear
8:55 PM 55.4 °F 53.6 °F 94% 30.13 in 10.0 mi Calm Calm - N/A   Clear
9:15 PM 53.6 °F 53.6 °F 100% 30.13 in 9.0 mi Calm Calm - N/A   Clear
9:35 PM 53.6 °F 53.6 °F 100% 30.13 in 8.0 mi Calm Calm - N/A   Clear
9:55 PM 53.6 °F 53.6 °F 100% 30.14 in 10.0 mi Calm Calm - N/A   Clear
10:15 PM 53.6 °F 53.6 °F 100% 30.15 in 10.0 mi Calm Calm - N/A   Clear
10:35 PM 53.6 °F 53.6 °F 100% 30.15 in 9.0 mi Calm Calm - N/A   Clear
10:55 PM 53.6 °F 53.6 °F 100% 30.15 in 10.0 mi NNE 4.6 mph - N/A   Clear
11:15 PM 55.4 °F 53.6 °F 94% 30.15 in 10.0 mi Calm Calm - N/A   Clear
11:35 PM 53.6 °F 53.6 °F 100% 30.15 in 10.0 mi Calm Calm - N/A   Clear
11:55 PM 53.6 °F 51.8 °F 94% 30.15 in 10.0 mi Calm Calm - N/A   Clear